Time,TemperatureF,DewpointF,PressureIn,WindDirection,WindDirectionDegrees,WindSpeedMPH,WindSpeedGustMPH,Humidity,HourlyPrecipIn,Conditions,Clouds,dailyrainin,SolarRadiationWatts/m^2,SoftwareType,DateUTC
2013-05-05 00:02:00,60.2,42.0,30.06,East,83,0.0,2.0,52,0.00,,,0.00,0,weatherlink.com 1.10,2013-05-05 04:02:00,
2013-05-05 00:17:00,59.4,42.0,30.06,East,82,0.0,2.0,53,0.00,,,0.00,0,weatherlink.com 1.10,2013-05-05 04:17:00,
2013-05-05 00:32:00,59.0,42.0,30.06,East,82,0.0,3.0,53,0.00,,,0.00,0,weatherlink.com 1.10,2013-05-05 04:32:00,
2013-05-05 00:47:00,58.5,42.0,30.06,East,82,0.0,2.0,55,0.00,,,0.00,0,weatherlink.com 1.10,2013-05-05 04:47:00,
2013-05-05 01:02:00,58.0,42.0,30.06,East,82,0.0,2.0,55,0.00,,,0.00,0,weatherlink.com 1.10,2013-05-05 05:02:00,
2013-05-05 01:17:00,57.7,41.0,30.06,East,82,0.0,2.0,55,0.00,,,0.00,0,weatherlink.com 1.10,2013-05-05 05:17:00,
2013-05-05 01:32:00,57.5,41.0,30.06,East,82,1.0,3.0,55,0.00,,,0.00,0,weatherlink.com 1.10,2013-05-05 05:32:00,
2013-05-05 01:47:00,57.7,41.0,30.05,East,82,0.0,5.0,54,0.00,,,0.00,0,weatherlink.com 1.10,2013-05-05 05:47:00,
2013-05-05 02:02:00,57.9,41.0,30.06,East,87,0.0,6.0,53,0.00,,,0.00,0,weatherlink.com 1.10,2013-05-05 06:02:00,
2013-05-05 02:17:00,58.0,41.0,30.05,East,90,1.0,5.0,53,0.00,,,0.00,0,weatherlink.com 1.10,2013-05-05 06:17:00,
2013-05-05 02:32:00,58.0,41.0,30.05,East,85,0.0,2.0,53,0.00,,,0.00,0,weatherlink.com 1.10,2013-05-05 06:32:00,
2013-05-05 02:47:00,57.8,41.0,30.04,East,95,1.0,3.0,53,0.00,,,0.00,0,weatherlink.com 1.10,2013-05-05 06:47:00,
2013-05-05 03:02:00,57.7,40.0,30.04,East,86,2.0,3.0,53,0.00,,,0.00,0,weatherlink.com 1.10,2013-05-05 07:02:00,
2013-05-05 03:17:00,57.6,40.0,30.04,East,88,0.0,5.0,53,0.00,,,0.00,0,weatherlink.com 1.10,2013-05-05 07:17:00,
2013-05-05 03:33:00,57.5,40.0,30.04,East,88,0.0,5.0,53,0.00,,,0.00,0,weatherlink.com 1.10,2013-05-05 07:33:00,
2013-05-05 03:48:00,57.5,40.0,30.03,ENE,75,0.0,7.0,53,0.00,,,0.00,0,weatherlink.com 1.10,2013-05-05 07:48:00,
2013-05-05 04:03:00,57.4,40.0,30.03,South,171,0.0,6.0,52,0.00,,,0.00,0,weatherlink.com 1.10,2013-05-05 08:03:00,
2013-05-05 04:18:00,57.4,40.0,30.03,East,86,5.0,9.0,52,0.00,,,0.00,0,weatherlink.com 1.10,2013-05-05 08:18:00,
2013-05-05 04:33:00,57.3,40.0,30.03,ENE,72,0.0,5.0,53,0.00,,,0.00,0,weatherlink.com 1.10,2013-05-05 08:33:00,
2013-05-05 04:48:00,57.1,40.0,30.03,ENE,76,3.0,5.0,53,0.00,,,0.00,0,weatherlink.com 1.10,2013-05-05 08:48:00,
2013-05-05 05:03:00,56.9,40.0,30.03,ENE,71,3.0,5.0,54,0.00,,,0.00,0,weatherlink.com 1.10,2013-05-05 09:03:00,
2013-05-05 05:18:00,56.7,40.0,30.03,East,88,2.0,8.0,54,0.00,,,0.00,0,weatherlink.com 1.10,2013-05-05 09:18:00,
2013-05-05 05:33:00,56.4,40.0,30.03,ENE,61,4.0,5.0,55,0.00,,,0.00,0,weatherlink.com 1.10,2013-05-05 09:33:00,
2013-05-05 05:48:00,56.2,40.0,30.03,East,83,1.0,5.0,55,0.00,,,0.00,0,weatherlink.com 1.10,2013-05-05 09:48:00,
2013-05-05 06:03:00,56.1,40.0,30.03,ESE,110,0.0,4.0,56,0.00,,,0.00,0,weatherlink.com 1.10,2013-05-05 10:03:00,
2013-05-05 06:18:00,55.8,41.0,30.03,ENE,76,1.0,5.0,57,0.00,,,0.00,0,weatherlink.com 1.10,2013-05-05 10:18:00,
2013-05-05 06:33:00,55.5,40.0,30.04,East,86,0.0,5.0,57,0.00,,,0.00,5,weatherlink.com 1.10,2013-05-05 10:33:00,
2013-05-05 06:48:00,55.3,41.0,30.04,East,80,0.0,4.0,58,0.00,,,0.00,12,weatherlink.com 1.10,2013-05-05 10:48:00,
2013-05-05 07:03:00,55.0,41.0,30.04,East,85,1.0,7.0,59,0.00,,,0.00,39,weatherlink.com 1.10,2013-05-05 11:03:00,
2013-05-05 07:18:00,54.9,41.0,30.04,ENE,65,4.0,6.0,59,0.00,,,0.00,60,weatherlink.com 1.10,2013-05-05 11:18:00,
2013-05-05 07:33:00,55.0,41.0,30.05,East,90,1.0,7.0,60,0.00,,,0.00,84,weatherlink.com 1.10,2013-05-05 11:33:00,
2013-05-05 07:48:00,55.4,42.0,30.05,ENE,76,0.0,5.0,60,0.00,,,0.00,113,weatherlink.com 1.10,2013-05-05 11:48:00,
2013-05-05 08:03:00,56.2,42.0,30.05,East,86,1.0,7.0,59,0.00,,,0.00,192,weatherlink.com 1.10,2013-05-05 12:03:00,
2013-05-05 08:18:00,57.6,43.0,30.06,ENE,78,7.0,10.0,58,0.00,,,0.00,285,weatherlink.com 1.10,2013-05-05 12:18:00,
2013-05-05 08:33:00,58.7,43.0,30.06,East,80,5.0,10.0,56,0.00,,,0.00,316,weatherlink.com 1.10,2013-05-05 12:33:00,
2013-05-05 08:48:00,59.0,44.0,30.06,East,94,5.0,7.0,57,0.00,,,0.00,295,weatherlink.com 1.10,2013-05-05 12:48:00,
2013-05-05 09:03:00,59.8,44.0,30.06,East,82,3.0,10.0,56,0.00,,,0.00,392,weatherlink.com 1.10,2013-05-05 13:03:00,
2013-05-05 09:18:00,60.7,44.0,30.06,ESE,111,2.0,10.0,55,0.00,,,0.00,376,weatherlink.com 1.10,2013-05-05 13:18:00,
2013-05-05 09:33:00,61.3,45.0,30.06,ESE,110,0.0,7.0,56,0.00,,,0.00,345,weatherlink.com 1.10,2013-05-05 13:33:00,
2013-05-05 09:48:00,62.2,46.0,30.06,ENE,78,7.0,8.0,55,0.00,,,0.00,443,weatherlink.com 1.10,2013-05-05 13:48:00,
2013-05-05 10:03:00,63.0,46.0,30.06,East,81,3.0,9.0,54,0.00,,,0.00,512,weatherlink.com 1.10,2013-05-05 14:03:00,
2013-05-05 10:18:00,63.7,46.0,30.06,ENE,78,3.0,7.0,53,0.00,,,0.00,439,weatherlink.com 1.10,2013-05-05 14:18:00,
2013-05-05 10:33:00,64.4,47.0,30.06,ENE,58,0.0,9.0,53,0.00,,,0.00,647,weatherlink.com 1.10,2013-05-05 14:33:00,
2013-05-05 10:49:00,65.6,48.0,30.06,ENE,71,3.0,9.0,53,0.00,,,0.00,745,weatherlink.com 1.10,2013-05-05 14:49:00,
2013-05-05 11:04:00,65.8,47.0,30.06,ESE,115,1.0,9.0,51,0.00,,,0.00,638,weatherlink.com 1.10,2013-05-05 15:04:00,
2013-05-05 11:19:00,67.2,49.0,30.06,ENE,74,4.0,8.0,53,0.00,,,0.00,726,weatherlink.com 1.10,2013-05-05 15:19:00,
2013-05-05 11:34:00,67.0,47.0,30.06,East,92,3.0,8.0,49,0.00,,,0.00,599,weatherlink.com 1.10,2013-05-05 15:34:00,
2013-05-05 11:49:00,67.7,48.0,30.05,SE,130,1.0,8.0,50,0.00,,,0.00,828,weatherlink.com 1.10,2013-05-05 15:49:00,
2013-05-05 12:04:00,68.2,48.0,30.05,ESE,109,1.0,8.0,49,0.00,,,0.00,786,weatherlink.com 1.10,2013-05-05 16:04:00,
2013-05-05 12:19:00,69.1,48.0,30.05,SSE,150,2.0,10.0,47,0.00,,,0.00,907,weatherlink.com 1.10,2013-05-05 16:19:00,
2013-05-05 12:34:00,69.4,48.0,30.05,ESE,104,2.0,9.0,46,0.00,,,0.00,686,weatherlink.com 1.10,2013-05-05 16:34:00,
2013-05-05 12:49:00,69.9,48.0,30.05,ENE,78,1.0,9.0,46,0.00,,,0.00,853,weatherlink.com 1.10,2013-05-05 16:49:00,
2013-05-05 13:04:00,70.2,48.0,30.04,East,84,3.0,10.0,46,0.00,,,0.00,918,weatherlink.com 1.10,2013-05-05 17:04:00,
2013-05-05 13:19:00,71.5,48.0,30.04,East,94,3.0,13.0,43,0.00,,,0.00,995,weatherlink.com 1.10,2013-05-05 17:19:00,
2013-05-05 13:34:00,72.2,47.0,30.03,SSE,161,2.0,10.0,41,0.00,,,0.00,974,weatherlink.com 1.10,2013-05-05 17:34:00,
2013-05-05 13:49:00,72.6,47.0,30.03,ENE,71,4.0,11.0,41,0.00,,,0.00,970,weatherlink.com 1.10,2013-05-05 17:49:00,
2013-05-05 14:04:00,73.0,47.0,30.02,SE,146,2.0,16.0,40,0.00,,,0.00,842,weatherlink.com 1.10,2013-05-05 18:04:00,
2013-05-05 14:19:00,75.1,48.0,30.01,ESE,103,2.0,12.0,38,0.00,,,0.00,844,weatherlink.com 1.10,2013-05-05 18:19:00,
2013-05-05 14:34:00,74.0,47.0,30.01,SSE,163,4.0,10.0,38,0.00,,,0.00,923,weatherlink.com 1.10,2013-05-05 18:34:00,
2013-05-05 14:49:00,73.8,47.0,30.01,East,85,7.0,11.0,39,0.00,,,0.00,942,weatherlink.com 1.10,2013-05-05 18:49:00,
2013-05-05 15:04:00,74.4,46.0,30.01,East,84,2.0,12.0,37,0.00,,,0.00,958,weatherlink.com 1.10,2013-05-05 19:04:00,
2013-05-05 15:19:00,74.3,46.0,30.01,East,94,0.0,13.0,37,0.00,,,0.00,875,weatherlink.com 1.10,2013-05-05 19:19:00,
2013-05-05 15:34:00,74.6,46.0,29.99,ENE,59,2.0,9.0,36,0.00,,,0.00,613,weatherlink.com 1.10,2013-05-05 19:34:00,
2013-05-05 15:49:00,74.5,46.0,29.99,ENE,67,0.0,15.0,36,0.00,,,0.00,555,weatherlink.com 1.10,2013-05-05 19:49:00,
2013-05-05 16:04:00,74.6,47.0,29.99,SE,130,2.0,10.0,37,0.00,,,0.00,884,weatherlink.com 1.10,2013-05-05 20:04:00,
2013-05-05 16:19:00,76.2,45.0,29.99,East,90,0.0,10.0,33,0.00,,,0.00,791,weatherlink.com 1.10,2013-05-05 20:19:00,
2013-05-05 16:34:00,75.7,45.0,29.99,ENE,76,4.0,11.0,33,0.00,,,0.00,587,weatherlink.com 1.10,2013-05-05 20:34:00,
2013-05-05 16:49:00,76.0,43.0,29.98,ESE,122,2.0,11.0,31,0.00,,,0.00,900,weatherlink.com 1.10,2013-05-05 20:49:00,
2013-05-05 17:04:00,75.9,43.0,29.98,ESE,116,3.0,9.0,31,0.00,,,0.00,475,weatherlink.com 1.10,2013-05-05 21:04:00,
2013-05-05 17:19:00,76.0,42.0,29.98,ESE,111,4.0,8.0,30,0.00,,,0.00,452,weatherlink.com 1.10,2013-05-05 21:19:00,
2013-05-05 17:34:00,75.1,42.0,29.98,ENE,74,4.0,14.0,30,0.00,,,0.00,422,weatherlink.com 1.10,2013-05-05 21:34:00,
2013-05-05 17:49:00,75.1,43.0,29.97,ENE,74,5.0,10.0,32,0.00,,,0.00,557,weatherlink.com 1.10,2013-05-05 21:49:00,
2013-05-05 18:04:00,75.6,43.0,29.97,East,86,1.0,10.0,31,0.00,,,0.00,527,weatherlink.com 1.10,2013-05-05 22:04:00,
2013-05-05 18:19:00,75.2,42.0,29.97,ESE,109,4.0,13.0,31,0.00,,,0.00,345,weatherlink.com 1.10,2013-05-05 22:19:00,
2013-05-05 18:34:00,74.8,40.0,29.97,ESE,121,7.0,11.0,29,0.00,,,0.00,211,weatherlink.com 1.10,2013-05-05 22:34:00,
2013-05-05 18:49:00,74.1,39.0,29.98,East,81,3.0,12.0,28,0.00,,,0.00,178,weatherlink.com 1.10,2013-05-05 22:49:00,
2013-05-05 19:04:00,73.4,37.0,29.98,East,82,7.0,10.0,27,0.00,,,0.00,142,weatherlink.com 1.10,2013-05-05 23:04:00,
2013-05-05 19:19:00,72.8,36.0,29.98,ENE,77,2.0,10.0,26,0.00,,,0.00,107,weatherlink.com 1.10,2013-05-05 23:19:00,
2013-05-05 19:34:00,72.3,37.0,29.98,East,87,0.0,6.0,28,0.00,,,0.00,69,weatherlink.com 1.10,2013-05-05 23:34:00,
2013-05-05 19:49:00,71.9,37.0,29.98,East,88,0.0,3.0,28,0.00,,,0.00,54,weatherlink.com 1.10,2013-05-05 23:49:00,
2013-05-05 20:04:00,71.3,37.0,29.99,East,88,0.0,2.0,29,0.00,,,0.00,49,weatherlink.com 1.10,2013-05-06 00:04:00,
2013-05-05 20:19:00,70.5,38.0,29.99,East,90,1.0,5.0,30,0.00,,,0.00,35,weatherlink.com 1.10,2013-05-06 00:19:00,
2013-05-05 20:34:00,70.0,38.0,29.99,East,88,0.0,0.0,31,0.00,,,0.00,11,weatherlink.com 1.10,2013-05-06 00:34:00,
2013-05-05 20:49:00,69.3,39.0,30.00,East,87,0.0,1.0,33,0.00,,,0.00,0,weatherlink.com 1.10,2013-05-06 00:49:00,
2013-05-05 21:04:00,68.2,39.0,30.00,East,93,0.0,1.0,34,0.00,,,0.00,0,weatherlink.com 1.10,2013-05-06 01:04:00,
2013-05-05 21:19:00,67.3,39.0,30.00,East,93,0.0,0.0,35,0.00,,,0.00,0,weatherlink.com 1.10,2013-05-06 01:19:00,
2013-05-05 21:34:00,66.3,38.0,30.01,East,93,1.0,2.0,36,0.00,,,0.00,0,weatherlink.com 1.10,2013-05-06 01:34:00,
2013-05-05 21:49:00,65.2,37.0,30.01,East,90,2.0,5.0,36,0.00,,,0.00,0,weatherlink.com 1.10,2013-05-06 01:49:00,
2013-05-05 22:04:00,64.9,38.0,30.02,East,80,0.0,2.0,37,0.00,,,0.00,0,weatherlink.com 1.10,2013-05-06 02:04:00,
2013-05-05 22:19:00,64.4,39.0,30.02,East,80,0.0,1.0,39,0.00,,,0.00,0,weatherlink.com 1.10,2013-05-06 02:19:00,
2013-05-05 22:34:00,63.6,39.0,30.02,East,80,0.0,0.0,41,0.00,,,0.00,0,weatherlink.com 1.10,2013-05-06 02:34:00,
2013-05-05 22:49:00,62.7,39.0,30.02,East,80,0.0,3.0,42,0.00,,,0.00,0,weatherlink.com 1.10,2013-05-06 02:49:00,
2013-05-05 23:04:00,62.0,40.0,30.02,East,80,0.0,2.0,44,0.00,,,0.00,0,weatherlink.com 1.10,2013-05-06 03:04:00,
2013-05-05 23:19:00,61.3,40.0,30.03,East,80,0.0,0.0,45,0.00,,,0.00,0,weatherlink.com 1.10,2013-05-06 03:19:00,
2013-05-05 23:34:00,60.4,39.0,30.02,East,80,0.0,0.0,46,0.00,,,0.00,0,weatherlink.com 1.10,2013-05-06 03:34:00,
2013-05-05 23:49:00,59.5,40.0,30.02,East,80,0.0,0.0,49,0.00,,,0.00,0,weatherlink.com 1.10,2013-05-06 03:49:00,